Regional Weather Roundup
Issued by NWS

Home | Current Version | Previous Version | Text Only | Print | Product List | Glossary On
Versions: 1 2 3 4 5 6 7 8 9 10 11 12 13 14 15 16 17 18 19 20 21 22 23 24 25 26 27 28 29 30 31 32 33 34 35 36 37 38 39 40 41 42 43 44 45 46 47 48 49 50
000
ASUS43 KLSX 230557
RWRMO

WEATHER SUMMARY FOR MISSOURI
NATIONAL WEATHER SERVICE SPRINGFIELD MO
100 AM CDT MON OCT 23 2017

NOTE: "FAIR" INDICATES FEW OR NO CLOUDS BELOW 12,000 FEET WITH NO
       SIGNIFICANT WEATHER AND/OR OBSTRUCTIONS TO VISIBILITY.
       CURRENT SKY AND/OR WEATHER CONDITIONS ARE NOT AVAILABLE FOR
       CHILLICOTHE AND FARMINGTON.

MOZ001>031-035>038-043-044-053-054-230700-
...NORTHERN AND WESTERN MISSOURI...

CITY           SKY/WX    TMP DP  RH WIND       PRES   REMARKS
KANSAS CTY INT CLEAR     43  39  86 S9        30.03F
6HR MIN TEMP:  43; 6HR MAX TEMP:  57;

LEE`S SUMMIT   CLEAR     49  40  71 S7        30.04F
6HR MIN TEMP:  49; 6HR MAX TEMP:  59;

ST JOSEPH      CLEAR     45  42  89 S6        30.01F
6HR MIN TEMP:  41; 6HR MAX TEMP:  54;

CHILLICOTHE      N/A     44  43  96 CALM      30.04F
6HR MIN TEMP:  43; 6HR MAX TEMP:  54;


$$
MOZ066>068-077>081-088>096-101>105-230700-
...SOUTHWEST MISSOURI...

CITY           SKY/WX    TMP DP  RH WIND       PRES   REMARKS
SPRINGFIELD    CLOUDY    50  48  93 SW3       30.06F
6HR MIN TEMP:  50; 6HR MAX TEMP:  52;

JOPLIN         CLEAR     44  44 100 MISG      30.08F
6HR MIN TEMP:  44; 6HR MAX TEMP:  56;


$$
MOZ032>034-039>042-045>050-055>058-069>072-230700-
...CENTRAL MISSOURI...

CITY           SKY/WX    TMP DP  RH WIND       PRES   REMARKS
COLUMBIA       NOT AVBL
JEFFERSON CITY CLOUDY    52  50  93 CALM      30.04F
6HR MIN TEMP:  52; 6HR MAX TEMP:  54;

ROLLA          MOCLDY    50  50 100 SW7       30.03S
6HR MIN TEMP:  49; 6HR MAX TEMP:  50; 6HR PCP:  0.06;

SEDALIA        PTCLDY    48  48 100 SW7       30.06F
6HR MIN TEMP:  47; 6HR MAX TEMP:  56;

WARRENSBURG    PTCLDY    41  39  93 CALM      30.05S

$$
MOZ051-052-059>065-230700-
...EAST CENTRAL MISSOURI...

CITY           SKY/WX    TMP DP  RH WIND       PRES   REMARKS
ST LOUIS INTL  LGT RAIN  52  51  97 NW10      29.98F
6HR MIN TEMP:  52; 6HR MAX TEMP:  53; 6HR PCP:  0.32;


$$
MOZ072>076-082>087-097>100-106>115-230700-
...SOUTH CENTRAL AND SOUTHEAST MISSOURI...

CITY           SKY/WX    TMP DP  RH WIND       PRES   REMARKS
CAPE GIRARDEAU CLOUDY    54  51  90 NW9       29.94S
6HR MIN TEMP:  54; 6HR MAX TEMP:  57; 6HR PCP:  0.79;

POPLAR BLUFF   CLOUDY    54  52  93 NW8       29.97S
6HR MIN TEMP:  54; 6HR MAX TEMP:  55; 6HR PCP:  0.17;

WEST PLAINS    CLOUDY    50  48  93 W7        30.04F
6HR MIN TEMP:  50; 6HR MAX TEMP:  52; 6HR PCP:  0.12;


$$



USA.gov is the U.S. government's official web portal to all federal, state and local government web resources and services.